Regional Weather Roundup
Issued by NWS Memphis, TN

Home | Current Version | Previous Version | Text Only | Print | Product List | Glossary On
Versions: 1 2 3 4 5 6 7 8 9 10 11 12 13 14 15 16 17 18 19 20 21 22 23 24 25 26 27 28 29 30 31 32 33 34 35 36 37 38 39 40 41 42 43 44 45 46 47 48 49 50
000
ASUS44 KMEG 241910
RWRMEG
MEMPHIS CWA HOURLY WEATHER ROUNDUP
NATIONAL WEATHER SERVICE MEMPHIS TN
200 PM CDT SAT JUN 24 2017

...WEST TENNESSEE...

CITY           SKY/WX    TMP DP  RH WIND       PRES   REMARKS
MEMPHIS INTL   PTSUNNY   82  61  48 N13       30.11R
NWS MEMPHIS      N/A     81 N/A N/A MISG        N/A
JACKSON        MOSUNNY   81  61  50 NW10      30.10S
COVINGTON      SUNNY     79  61  53 N12       30.12S
SOMERVILLE     SUNNY     81  63  54 N9        30.10R
BOLIVAR        SUNNY     81  63  54 NW9       30.09R
LEXINGTON      SUNNY     81  61  50 N9        30.08S
SELMER         SUNNY     81  64  57 VRB3      30.08S
SAVANNAH       SUNNY     82  64  54 N9        30.06S
UNION CITY     MOSUNNY   79  59  50 NW7       30.10S
PARIS          MOSUNNY   77  63  61 VRB6      30.09S
HUNTINGDON     SUNNY     77  63  61 VRB5G12   30.09S


...EASTERN ARKANSAS...

CITY           SKY/WX    TMP DP  RH WIND       PRES   REMARKS
JONESBORO      MOSUNNY   79  60  52 NW10G17   30.13S
WEST MEMPHIS   MOSUNNY   80  66  62 N10       30.11S
BATESVILLE     CLOUDY    77  59  53 NW6       30.15F
WALNUT RIDGE   PTSUNNY   81  59  47 NW9       30.14S
BLYTHEVILLE    PTSUNNY   81  65  58 N9        30.12S
SEARCY         CLOUDY    80  63  55 N9G16     30.15F
STUTTGART      CLOUDY   N/A N/A N/A N9        30.13F
PINE BLUFF     CLOUDY    81  65  58 N12G20    30.12F
MONTICELLO     PTSUNNY   82  67  60 NE6       30.10F


...NORTH MISSISSIPPI...

CITY           SKY/WX    TMP DP  RH WIND       PRES   REMARKS
TUPELO         MOSUNNY   83  63  50 NW8       30.06F
OXFORD         MOSUNNY   82  64  54 N8        30.11R
BATESVILLE     MOSUNNY   84  65  53 NW6       30.10R
OLIVE BRANCH   PTSUNNY  N/A N/A N/A N12       30.09S
TUNICA           N/A     81  64  57 N10       30.11S
CLARKSDALE       N/A     82  70  65 CALM      30.10F
CORINTH        MOSUNNY   82  64  54 NW5G12    30.07S
GREENWOOD      MOSUNNY   84  70  62 N6        30.07S
COLUMBUS       MOSUNNY   85  75  72 N10       30.04S HX  93
STARKVILLE     MOSUNNY   82  70  65 N7G16     30.06F
GOLDEN TRIANGL MOSUNNY   86  72  62 N12G18    30.01S HX  92


...SOUTHEAST MISSOURI...

CITY           SKY/WX    TMP DP  RH WIND       PRES   REMARKS
KENNETT        PTSUNNY   81  59  47 NW9       30.11S
MALDEN         MOSUNNY   81  54  39 NW12G17   30.13S
WEST PLAINS    PTSUNNY   79  53  40 NW10      30.19F
POPLAR BLUFF   MOSUNNY   79  58  48 NW9       30.12S
CAPE GIRARDEAU MOSUNNY   79  55  43 NW12      30.11S


...NORTHWEST ALABAMA...

CITY           SKY/WX    TMP DP  RH WIND       PRES   REMARKS
MUSCLE SHOALS  PTSUNNY   86  62  44 N5        30.06F


...MIDDLE TENNESSEE...

CITY           SKY/WX    TMP DP  RH WIND       PRES   REMARKS
NASHVILLE      MOSUNNY   82  59  45 NW8       30.06F
CLARKSVILLE    CLOUDY    78  60  53 W6        30.08S
COLUMBIA       SUNNY     82  63  51 NW6G13    30.04S


...WESTERN KENTUCKY...

CITY           SKY/WX    TMP DP  RH WIND       PRES   REMARKS
PADUCAH        MOSUNNY   78  55  44 N12       30.09S
FORT CAMPBELL  CLOUDY    78  59  52 W9        30.08S


...CENTRAL ARKANSAS...

CITY           SKY/WX    TMP DP  RH WIND       PRES   REMARKS
LITTLE ROCK    CLOUDY    79  61  53 N10       30.14F


SKY/WX REPORTED AS FAIR MEANS FEW OR NO CLOUDS BELOW
12 THOUSAND FEET.




USA.gov is the U.S. government's official web portal to all federal, state and local government web resources and services.